Flag for U.S.A. Weather past 2 weeks in El Monte, California, U.S.A.

Now
71 °F

Sunny.


Feels Like: 75 °F
Forecast: 53 / 80 °F
Wind: 5 mph from West

Location: Fullerton Municipal Airport

Current Time: Apr 17, 2015 at 8:37:24 PM

Latest Report: Apr 17, 2015 at 7:53 PM


Visibility: 10 mi

Pressure: 29.96 "Hg

Humidity: 24%

Dew point: 32 °F

Location of El MonteLocation

Historic Weather in El Monte — Graph

°F

El Monte temperature yesterday

Maximum temperature yesterday: 85 °F (at 1:53 PM)
Minimum temperature yesterday: 60 °F (at 12:53 AM)
Average temperature yesterday: 73 °F

Past Weeks' High & Low Weather Summary

 TemperatureHumidityPressure
High87 °F (Apr 3, 1:53 PM)90% (Apr 8, 5:53 AM)30.09 "Hg (Apr 8, 5:53 AM)
Low49 °F (Apr 8, 5:53 AM)5% (Apr 3, 1:53 PM)29.83 "Hg (Apr 5, 5:53 PM)
Average65 °F48%29.96 "Hg
* Reported Apr 2 6:53 PM — Apr 17 6:53 PM, El Monte, Weather by CustomWeather, © 2015

Note: Actual official high and low records may vary slightly from our data, if they occured in-between our weather recording intervals... More about our weather records

Advertising

El Monte weather history for previous 24 hours

 ConditionsComfort  
Time TempWeatherWind HumidityBarometerVisibility
6:53 PM
Fri, Apr 17
75 °FSunny.8 mph16%29.95 "Hg10 mi
5:53 PM77 °FSunny.8 mph16%29.95 "Hg10 mi
4:53 PM80 °FSunny.9 mph14%29.94 "Hg10 mi
3:53 PM81 °FSunny.10 mph13%29.94 "Hg10 mi
2:53 PM83 °FSunny.10 mph9%29.96 "Hg10 mi
1:53 PM84 °FSunny.9 mph13%29.98 "Hg10 mi
12:53 PM84 °FSunny.No wind10%29.99 "Hg10 mi
11:53 AM82 °FSunny.7 mph10%30.01 "Hg10 mi
10:53 AM78 °FSunny.3 mph12%30.03 "Hg10 mi
9:53 AM74 °FSunny.No wind15%30.03 "Hg10 mi
8:53 AM68 °FSunny.No wind21%30.04 "Hg10 mi
7:53 AM61 °FSunny.No wind31%30.04 "Hg10 mi
6:53 AM55 °FClear.No wind45%30.03 "Hg10 mi
5:53 AM53 °FClear.No wind41%30.01 "Hg10 mi
4:53 AM57 °FClear.3 mph29%30.01 "Hg10 mi
3:53 AM56 °FClear.5 mph32%30.01 "Hg10 mi
2:53 AM58 °FClear.5 mph30%30.02 "Hg10 mi
1:53 AM59 °FClear.No wind39%30.03 "Hg10 mi
12:53 AM61 °FClear.5 mph30%30.04 "Hg10 mi
11:53 PM
Thu, Apr 16
64 °FClear.6 mph28%30.04 "Hg10 mi
10:53 PM65 °FClear.No wind27%30.03 "Hg10 mi
9:53 PM67 °FClear.No wind23%30.03 "Hg10 mi
8:53 PM70 °FClear.3 mph17%30.01 "Hg10 mi
Weather by CustomWeather, © 2015

See weather overviewHow to use our weather pages